#timestamp,LO_Frequency,Hit,StdDev 
1512244815.0,286047000.1,N
1512244815.9,286047000.1,N
1512244835.8,286047002.3,N
1512244855.6,286047000.2,N
1512244875.4,286046999.6,N
1512244895.3,286046995.5,N
1512244915.1,286046996.1,N
1512244935.9,286046997.6,N
1512244955.7,286046996.0,N
1512244975.5,286046997.9,N
1512244995.4,286046998.8,N
1512245015.2,286046999.1,N
1512245035.0,286046997.7,N
1512245035.9,286046997.7,N
1512245055.8,286046994.9,N
1512245075.6,286046996.6,N
1512245095.5,286046994.9,N
1512245115.3,286046996.0,N
1512245135.1,286046993.6,N
1512245155.9,286046995.3,N
1512245175.7,286046995.2,N
1512245195.5,286046996.5,N
1512245215.4,286046999.1,N
1512245235.2,286046997.6,N
1512245255.1,286046995.1,N
1512245256.0,286046995.1,N
1512245275.8,286046998.4,N
1512245295.6,286046995.6,N
1512245315.5,286046994.3,N
1512245335.3,286046995.0,N
1512245355.1,286046995.2,N
1512245375.9,286046995.6,N
1512245395.7,286046995.7,N
1512245415.6,286046997.8,N
1512245435.4,286046995.4,N
1512245455.2,286046998.7,N
1512245475.1,286046997.3,N
1512245476.0,286046997.3,N
1512245495.8,286046995.7,N
1512245515.7,286046997.6,N
1512245535.5,286046994.9,Y
1512245555.3,286046998.3,P
1512245575.2,286047001.0,N
1512245595.0,286047000.5,N
1512245595.9,286047000.5,N
1512245615.7,286047001.2,N
1512245635.6,286046997.6,N
1512245655.4,286046995.7,N
1512245675.3,286046999.1,N
1512245695.1,286046999.0,N
1512245696.0,286046999.0,N
1512245715.8,286047002.0,N
1512245735.7,286047005.3,N
1512245755.5,286047004.4,N
1512245775.4,286047004.1,N
1512245795.2,286047003.8,N
1512245815.0,286047001.6,N
1512245815.9,286047001.6,N
1512245835.8,286047003.7,N
1512245855.6,286047003.1,N
1512245875.4,286047004.7,N
1512245895.3,286047005.8,N
1512245915.1,286047005.5,N
1512245935.9,286047003.1,N
1512245955.7,286047004.9,N
1512245975.5,286047004.2,N
1512245995.4,286047003.7,N
1512246015.2,286047003.5,N
1512246035.0,286047002.4,N
1512246035.9,286047002.4,N
1512246055.8,286046999.0,N
1512246075.6,286046998.3,N
1512246095.5,286047001.2,N
1512246115.3,286046999.3,N
1512246135.1,286047002.1,N
1512246155.9,286046999.2,N
1512246175.7,286046998.2,N
1512246195.5,286047002.1,N
1512246215.4,286047004.0,N
1512246235.2,286047004.3,N
1512246255.1,286046997.7,N
1512246256.0,286046997.7,N
1512246275.8,286046996.7,N
1512246295.6,286046996.7,N
1512246315.5,286046997.6,N
1512246335.3,286047000.3,N
1512246355.2,286047001.9,N
1512246375.9,286047001.4,N
1512246395.7,286046999.7,N
1512246415.6,286046999.8,N
1512246435.4,286047003.0,N
1512246455.2,286047003.9,N
1512246475.1,286047000.4,N
1512246476.0,286047000.4,N
1512246495.8,286047002.7,N
1512246515.7,286047002.8,N
1512246535.5,286047002.6,N
1512246555.3,286047002.9,N
1512246575.2,286047007.6,Y
1512246595.0,286047004.7,P
1512246595.9,286047004.7,N
1512246615.8,286047005.6,N
1512246635.6,286047003.2,N
1512246655.4,286047005.4,Y
1512246675.3,286047003.1,P
1512246695.1,286047004.8,P
1512246715.9,286047007.2,P
1512246735.7,286047004.2,N
1512246755.5,286047003.7,N
1512246775.4,286047005.1,Y
1512246795.2,286047000.8,P
1512246815.0,286046999.2,N
1512246815.9,286046999.2,N
1512246835.8,286046999.1,N
1512246855.6,286046999.6,N
1512246875.5,286046999.6,N
1512246895.3,286046999.2,N
1512246915.1,286046996.9,N
1512246935.9,286046997.6,N
1512246955.7,286046997.1,N
1512246975.6,286046995.8,N
1512246995.4,286046998.7,N
1512247015.2,286047000.8,N
1512247035.1,286046999.6,N
1512247036.0,286046999.6,N
1512247055.8,286046995.4,N
1512247075.6,286046996.9,N
1512247095.5,286046994.9,N
1512247115.3,286046993.3,Y
1512247135.2,286046996.1,P
1512247155.9,286046997.8,N
1512247175.7,286046996.5,P
1512247195.6,286046998.4,N
1512247215.4,286046999.1,N
1512247235.2,286046998.2,N
1512247255.1,286046998.2,N
1512247256.0,286046998.2,N
1512247275.8,286046996.8,Y
1512247295.7,286046997.9,P
1512247315.5,286046996.3,P
1512247335.3,286046997.3,P
1512247355.2,286046995.6,Y
1512247375.0,286046997.4,P
1512247375.9,286046997.4,P
1512247395.8,286046997.4,P
1512247415.6,286047002.2,Y
1512247435.4,286047006.6,P
1512247455.3,286047005.7,N
1512247475.1,286047003.3,N
1512247495.8,286047003.8,N
1512247515.7,286047002.2,N
1512247535.5,286047002.8,N
1512247555.4,286046998.2,N
1512247575.2,286046998.1,N
1512247595.0,286047004.4,N
1512247595.9,286047004.4,N
1512247615.8,286047004.8,N
1512247635.6,286047005.6,N
1512247655.4,286047003.5,N
1512247675.3,286047003.0,N
1512247695.1,286047006.7,N
1512247715.9,286047007.5,N
1512247735.7,286047004.3,N
1512247755.5,286047003.7,N
1512247775.4,286047005.1,N
1512247795.2,286047002.9,N
1512247815.1,286047001.4,N
1512247816.0,286047001.4,N
1512247835.8,286047003.8,N
1512247855.6,286047003.5,N
1512247875.5,286047005.6,N
1512247895.3,286047004.0,N
1512247915.2,286047000.6,N
1512247935.9,286047001.0,N
1512247955.7,286047001.1,N
1512247975.6,286047001.1,N
1512247995.4,286046998.5,N
1512248015.2,286047002.4,N
1512248035.1,286047002.0,N
1512248036.0,286047002.0,N
1512248055.8,286047003.7,N
1512248075.7,286047004.2,N
1512248095.5,286047004.5,N
1512248115.3,286047004.9,N
1512248135.2,286047005.4,N
1512248155.0,286047005.2,N
1512248155.9,286047005.2,N
1512248175.8,286047007.1,Y
1512248195.6,286047005.2,P
1512248215.4,286047004.4,P
1512248235.3,286047001.4,N
1512248255.1,286047005.1,Y
1512248275.8,286047004.3,P
1512248295.7,286047003.7,P
1512248315.5,286047001.4,P
1512248335.4,286047000.8,N
1512248355.2,286047001.8,N
1512248375.0,286047003.3,N
1512248375.9,286047003.3,N
1512248395.8,286047002.2,N
